Year,Month,Day,Hour,Minute,Value (Times are PST for temperature in C)
2012,03,25,00,00,1.90
2012,03,25,00,01,1.90
2012,03,25,00,02,1.90
2012,03,25,00,03,1.90
2012,03,25,00,04,1.90
2012,03,25,00,05,1.90
2012,03,25,00,06,1.90
2012,03,25,00,07,1.90
2012,03,25,00,08,1.90
2012,03,25,00,09,1.90
2012,03,25,00,10,1.90
2012,03,25,00,11,1.90
2012,03,25,00,12,1.90
2012,03,25,00,13,1.90
2012,03,25,00,14,2.00
2012,03,25,00,15,2.00
2012,03,25,00,16,2.00
2012,03,25,00,17,2.00
2012,03,25,00,18,2.00
2012,03,25,00,19,2.00
2012,03,25,00,20,2.00
2012,03,25,00,21,2.10
2012,03,25,00,22,2.10
2012,03,25,00,23,2.10
2012,03,25,00,24,2.10
2012,03,25,00,25,2.10
2012,03,25,00,26,2.10
2012,03,25,00,27,2.10
2012,03,25,00,28,2.10
2012,03,25,00,29,2.10
2012,03,25,00,30,2.10
2012,03,25,00,31,2.10
2012,03,25,00,32,2.10
2012,03,25,00,33,2.10
2012,03,25,00,34,2.10
2012,03,25,00,35,2.10
2012,03,25,00,36,2.20
2012,03,25,00,37,2.20
2012,03,25,00,38,2.20
2012,03,25,00,39,2.20
2012,03,25,00,40,2.20
2012,03,25,00,41,2.20
2012,03,25,00,42,2.20
2012,03,25,00,43,2.20
2012,03,25,00,44,2.20
2012,03,25,00,45,2.20
2012,03,25,00,46,2.20
2012,03,25,00,47,2.20
2012,03,25,00,48,2.20
2012,03,25,00,49,2.30
2012,03,25,00,50,2.30
2012,03,25,00,51,2.30
2012,03,25,00,52,2.30
2012,03,25,00,53,2.30
2012,03,25,00,54,2.30
2012,03,25,00,55,2.30
2012,03,25,00,56,2.30
2012,03,25,00,57,2.30
2012,03,25,00,58,2.40
2012,03,25,00,59,2.40
2012,03,25,01,00,2.40
2012,03,25,01,01,2.40
2012,03,25,01,02,2.40
2012,03,25,01,03,2.40
2012,03,25,01,04,2.40
2012,03,25,01,05,2.50
2012,03,25,01,06,2.50
2012,03,25,01,07,2.50
2012,03,25,01,08,2.50
2012,03,25,01,09,2.50
2012,03,25,01,10,2.60
2012,03,25,01,11,2.60
2012,03,25,01,12,2.60
2012,03,25,01,13,2.60
2012,03,25,01,15,2.60
2012,03,25,01,16,2.60
2012,03,25,01,17,2.60
2012,03,25,01,18,2.60
2012,03,25,01,19,2.60
2012,03,25,01,20,2.60
2012,03,25,01,21,2.60
2012,03,25,01,22,2.60
2012,03,25,01,23,2.60
2012,03,25,01,24,2.60
2012,03,25,01,26,2.60
2012,03,25,01,27,2.50
2012,03,25,01,28,2.50
2012,03,25,01,29,2.50
2012,03,25,01,30,2.50
2012,03,25,01,31,2.50
2012,03,25,01,32,2.40
2012,03,25,01,33,2.40
2012,03,25,01,34,2.40
2012,03,25,01,35,2.40
2012,03,25,01,36,2.40
2012,03,25,01,37,2.40
2012,03,25,01,38,2.40
2012,03,25,01,39,2.40
2012,03,25,01,40,2.40
2012,03,25,01,41,2.40
2012,03,25,01,42,2.40
2012,03,25,01,43,2.40
2012,03,25,01,44,2.40
2012,03,25,01,45,2.40
2012,03,25,01,46,2.40
2012,03,25,01,47,2.40
2012,03,25,01,48,2.40
2012,03,25,01,49,2.40
2012,03,25,01,50,2.40
2012,03,25,01,51,2.50
2012,03,25,01,52,2.40
2012,03,25,01,53,2.50
2012,03,25,01,54,2.40
2012,03,25,01,55,2.40
2012,03,25,01,56,2.40
2012,03,25,01,57,2.40
2012,03,25,01,58,2.40
2012,03,25,01,59,2.40
2012,03,25,02,00,2.40
2012,03,25,02,01,2.50
2012,03,25,02,02,2.50
2012,03,25,02,03,2.50
2012,03,25,02,04,2.50
2012,03,25,02,05,2.50
2012,03,25,02,06,2.50
2012,03,25,02,07,2.50
2012,03,25,02,08,2.50
2012,03,25,02,09,2.40
2012,03,25,02,10,2.40
2012,03,25,02,11,2.40
2012,03,25,02,12,2.40
2012,03,25,02,13,2.40
2012,03,25,02,14,2.30
2012,03,25,02,15,2.30
2012,03,25,02,16,2.30
2012,03,25,02,17,2.30
2012,03,25,02,18,2.20
2012,03,25,02,19,2.20
2012,03,25,02,20,2.20
2012,03,25,02,21,2.20
2012,03,25,02,22,2.10
2012,03,25,02,23,2.10
2012,03,25,02,24,2.10
2012,03,25,02,25,2.00
2012,03,25,02,26,2.00
2012,03,25,02,27,2.00
2012,03,25,02,28,1.90
2012,03,25,02,29,1.90
2012,03,25,02,30,1.90
2012,03,25,02,31,1.90
2012,03,25,02,32,1.90
2012,03,25,02,33,1.80
2012,03,25,02,34,1.80
2012,03,25,02,35,1.80
2012,03,25,02,36,1.80
2012,03,25,02,37,1.80
2012,03,25,02,38,1.80
2012,03,25,02,39,1.80
2012,03,25,02,40,1.70
2012,03,25,02,41,1.70
2012,03,25,02,42,1.70
2012,03,25,02,43,1.70
2012,03,25,02,44,1.70
2012,03,25,02,45,1.70
2012,03,25,02,46,1.70
2012,03,25,02,47,1.70
2012,03,25,02,48,1.70
2012,03,25,02,49,1.70
2012,03,25,02,50,1.70
2012,03,25,02,51,1.70
2012,03,25,02,52,1.60
2012,03,25,02,53,1.60
2012,03,25,02,54,1.60
2012,03,25,02,55,1.60
2012,03,25,02,56,1.60
2012,03,25,02,57,1.60
2012,03,25,02,58,1.60
2012,03,25,02,59,1.60
2012,03,25,03,00,1.60
2012,03,25,03,01,1.60
2012,03,25,03,02,1.50
2012,03,25,03,03,1.50
2012,03,25,03,04,1.50
2012,03,25,03,05,1.50
2012,03,25,03,06,1.40
2012,03,25,03,07,1.40
2012,03,25,03,08,1.40
2012,03,25,03,09,1.40
2012,03,25,03,10,1.40
2012,03,25,03,11,1.40
2012,03,25,03,12,1.40
2012,03,25,03,13,1.40
2012,03,25,03,14,1.40
2012,03,25,03,15,1.40
2012,03,25,03,16,1.40
2012,03,25,03,17,1.40
2012,03,25,03,18,1.40
2012,03,25,03,19,1.30
2012,03,25,03,20,1.30
2012,03,25,03,21,1.30
2012,03,25,03,22,1.30
2012,03,25,03,23,1.30
2012,03,25,03,24,1.30
2012,03,25,03,25,1.30
2012,03,25,03,26,1.30
2012,03,25,03,28,1.30
2012,03,25,03,29,1.30
2012,03,25,03,30,1.30
2012,03,25,03,31,1.30
2012,03,25,03,32,1.30
2012,03,25,03,33,1.20
2012,03,25,03,34,1.20
2012,03,25,03,35,1.20
2012,03,25,03,36,1.20
2012,03,25,03,37,1.20
2012,03,25,03,38,1.20
2012,03,25,03,39,1.20
2012,03,25,03,40,1.20
2012,03,25,03,41,1.20
2012,03,25,03,42,1.10
2012,03,25,03,43,1.10
2012,03,25,03,44,1.10
2012,03,25,03,45,1.10
2012,03,25,03,46,1.10
2012,03,25,03,47,1.00
2012,03,25,03,48,1.00
2012,03,25,03,49,0.90
2012,03,25,03,50,0.90
2012,03,25,03,51,0.90
2012,03,25,03,52,0.80
2012,03,25,03,53,0.80
2012,03,25,03,54,0.80
2012,03,25,03,55,0.80
2012,03,25,03,56,0.70
2012,03,25,03,57,0.70
2012,03,25,03,58,0.70
2012,03,25,04,00,0.70
2012,03,25,04,01,0.70
2012,03,25,04,02,0.70
2012,03,25,04,03,0.70
2012,03,25,04,04,0.70
2012,03,25,04,05,0.60
2012,03,25,04,06,0.60
2012,03,25,04,08,0.60
2012,03,25,04,09,0.60
2012,03,25,04,10,0.60
2012,03,25,04,11,0.60
2012,03,25,04,12,0.60
2012,03,25,04,13,0.60
2012,03,25,04,14,0.60
2012,03,25,04,15,0.60
2012,03,25,04,16,0.60
2012,03,25,04,17,0.60
2012,03,25,04,18,0.60
2012,03,25,04,19,0.60
2012,03,25,04,20,0.60
2012,03,25,04,21,0.50
2012,03,25,04,22,0.50
2012,03,25,04,24,0.40
2012,03,25,04,25,0.40
2012,03,25,04,26,0.40
2012,03,25,04,27,0.40
2012,03,25,04,28,0.40
2012,03,25,04,29,0.40
2012,03,25,04,30,0.30
2012,03,25,04,31,0.30
2012,03,25,04,32,0.30
2012,03,25,04,33,0.30
2012,03,25,04,34,0.30
2012,03,25,04,35,0.20
2012,03,25,04,36,0.20
2012,03,25,04,37,0.20
2012,03,25,04,38,0.20
2012,03,25,04,39,0.20
2012,03,25,04,40,0.20
2012,03,25,04,41,0.20
2012,03,25,04,42,0.20
2012,03,25,04,43,0.10
2012,03,25,04,44,0.10
2012,03,25,04,45,0.10
2012,03,25,04,46,0.10
2012,03,25,04,47,0.10
2012,03,25,04,48,0.00
2012,03,25,04,49,0.00
2012,03,25,04,50,0.00
2012,03,25,04,51,0.00
2012,03,25,04,52,0.00
2012,03,25,04,53,0.00
2012,03,25,04,54,0.00
2012,03,25,04,55,0.00
2012,03,25,04,56,-0.10
2012,03,25,04,57,-0.10
2012,03,25,04,58,-0.10
2012,03,25,04,59,-0.10
2012,03,25,05,00,-0.10
2012,03,25,05,01,-0.10
2012,03,25,05,02,-0.10
2012,03,25,05,03,-0.10
2012,03,25,05,04,-0.10
2012,03,25,05,05,-0.10
2012,03,25,05,06,-0.10
2012,03,25,05,07,-0.10
2012,03,25,05,08,-0.10
2012,03,25,05,09,-0.20
2012,03,25,05,10,-0.20
2012,03,25,05,11,-0.20
2012,03,25,05,12,-0.20
2012,03,25,05,13,-0.20
2012,03,25,05,14,-0.30
2012,03,25,05,15,-0.30
2012,03,25,05,16,-0.30
2012,03,25,05,17,-0.30
2012,03,25,05,18,-0.30
2012,03,25,05,19,-0.30
2012,03,25,05,20,-0.30
2012,03,25,05,21,-0.40
2012,03,25,05,22,-0.40
2012,03,25,05,23,-0.40
2012,03,25,05,24,-0.40
2012,03,25,05,25,-0.50
2012,03,25,05,26,-0.50
2012,03,25,05,27,-0.60
2012,03,25,05,28,-0.60
2012,03,25,05,30,-0.60
2012,03,25,05,31,-0.60
2012,03,25,05,32,-0.70
2012,03,25,05,33,-0.70
2012,03,25,05,34,-0.70
2012,03,25,05,35,-0.70
2012,03,25,05,36,-0.80
2012,03,25,05,37,-0.80
2012,03,25,05,38,-0.80
2012,03,25,05,39,-0.80
2012,03,25,05,40,-0.80
2012,03,25,05,41,-0.80
2012,03,25,05,42,-0.90
2012,03,25,05,43,-0.90
2012,03,25,05,44,-0.90
2012,03,25,05,45,-0.90
2012,03,25,05,46,-0.90
2012,03,25,05,47,-0.90
2012,03,25,05,48,-0.90
2012,03,25,05,49,-0.90
2012,03,25,05,50,-0.90
2012,03,25,05,51,-0.90
2012,03,25,05,52,-0.90
2012,03,25,05,53,-0.90
2012,03,25,05,54,-0.90
2012,03,25,05,55,-0.90
2012,03,25,05,56,-0.90
2012,03,25,05,57,-0.90
2012,03,25,05,58,-1.00
2012,03,25,05,59,-0.90
2012,03,25,06,00,-0.90
2012,03,25,06,01,-0.90
2012,03,25,06,02,-0.90
2012,03,25,06,03,-0.90
2012,03,25,06,04,-0.90
2012,03,25,06,05,-0.90
2012,03,25,06,06,-0.90
2012,03,25,06,07,-0.90
2012,03,25,06,08,-0.90
2012,03,25,06,09,-0.90
2012,03,25,06,10,-0.90
2012,03,25,06,12,-0.90
2012,03,25,06,13,-0.90
2012,03,25,06,14,-0.90
2012,03,25,06,15,-0.90
2012,03,25,06,17,-0.90
2012,03,25,06,18,-0.90
2012,03,25,06,19,-0.90
2012,03,25,06,20,-0.90
2012,03,25,06,21,-0.90
2012,03,25,06,22,-0.90
2012,03,25,06,23,-0.90
2012,03,25,06,24,-0.90
2012,03,25,06,26,-0.90
2012,03,25,06,27,-0.90
2012,03,25,06,29,-0.90
2012,03,25,06,30,-0.90
2012,03,25,06,31,-0.80
2012,03,25,06,32,-0.80
2012,03,25,06,33,-0.80
2012,03,25,06,34,-0.80
2012,03,25,06,35,-0.80
2012,03,25,06,36,-0.80
2012,03,25,06,37,-0.80
2012,03,25,06,38,-0.80
2012,03,25,06,39,-0.90
2012,03,25,06,40,-0.80
2012,03,25,06,41,-0.90
2012,03,25,06,42,-0.80
2012,03,25,06,43,-0.80
2012,03,25,06,44,-0.80
2012,03,25,06,45,-0.80
2012,03,25,06,46,-0.90
2012,03,25,06,47,-0.90
2012,03,25,06,48,-0.90
2012,03,25,06,49,-0.90
2012,03,25,06,50,-0.90
2012,03,25,06,51,-0.90
2012,03,25,06,52,-0.90
2012,03,25,06,53,-0.90
2012,03,25,06,54,-0.90
2012,03,25,06,55,-0.90
2012,03,25,06,56,-0.90
2012,03,25,06,57,-0.90
2012,03,25,06,58,-0.90
2012,03,25,06,59,-0.90
2012,03,25,07,00,-0.90
2012,03,25,07,01,-0.80
2012,03,25,07,02,-0.80
2012,03,25,07,03,-0.80
2012,03,25,07,04,-0.80
2012,03,25,07,05,-0.80
2012,03,25,07,06,-0.80
2012,03,25,07,07,-0.80
2012,03,25,07,08,-0.80
2012,03,25,07,09,-0.80
2012,03,25,07,10,-0.80
2012,03,25,07,11,-0.80
2012,03,25,07,12,-0.80
2012,03,25,07,13,-0.80
2012,03,25,07,14,-0.80
2012,03,25,07,15,-0.80
2012,03,25,07,16,-0.80
2012,03,25,07,17,-0.80
2012,03,25,07,18,-0.80
2012,03,25,07,19,-0.80
2012,03,25,07,20,-0.80
2012,03,25,07,21,-0.80
2012,03,25,07,22,-0.80
2012,03,25,07,23,-0.80
2012,03,25,07,24,-0.80
2012,03,25,07,25,-0.80
2012,03,25,07,26,-0.80
2012,03,25,07,27,-0.80
2012,03,25,07,28,-0.80
2012,03,25,07,29,-0.80
2012,03,25,07,30,-0.80
2012,03,25,07,31,-0.80
2012,03,25,07,32,-0.80
2012,03,25,07,33,-0.80
2012,03,25,07,34,-0.80
2012,03,25,07,35,-0.80
2012,03,25,07,36,-0.80
2012,03,25,07,37,-0.80
2012,03,25,07,38,-0.80
2012,03,25,07,39,-0.80
2012,03,25,07,40,-0.80
2012,03,25,07,41,-0.80
2012,03,25,07,42,-0.80
2012,03,25,07,43,-0.80
2012,03,25,07,44,-0.80
2012,03,25,07,45,-0.80
2012,03,25,07,46,-0.80
2012,03,25,07,47,-0.80
2012,03,25,07,48,-0.80
2012,03,25,07,49,-0.80
2012,03,25,07,50,-0.70
2012,03,25,07,51,-0.70
2012,03,25,07,52,-0.70
2012,03,25,07,53,-0.70
2012,03,25,07,54,-0.70
2012,03,25,07,55,-0.70
2012,03,25,07,56,-0.60
2012,03,25,07,57,-0.60
2012,03,25,07,58,-0.60
2012,03,25,07,59,-0.60
2012,03,25,08,00,-0.60
2012,03,25,08,01,-0.60
2012,03,25,08,02,-0.50
2012,03,25,08,03,-0.40
2012,03,25,08,04,-0.40
2012,03,25,08,05,-0.30
2012,03,25,08,06,-0.30
2012,03,25,08,07,-0.30
2012,03,25,08,08,-0.30
2012,03,25,08,09,-0.30
2012,03,25,08,10,-0.30
2012,03,25,08,11,-0.30
2012,03,25,08,12,-0.30
2012,03,25,08,13,-0.30
2012,03,25,08,15,-0.30
2012,03,25,08,16,-0.30
2012,03,25,08,17,-0.30
2012,03,25,08,18,-0.30
2012,03,25,08,19,-0.40
2012,03,25,08,20,-0.40
2012,03,25,08,21,-0.40
2012,03,25,08,22,-0.40
2012,03,25,08,23,-0.40
2012,03,25,08,24,-0.40
2012,03,25,08,25,-0.40
2012,03,25,08,26,-0.40
2012,03,25,08,27,-0.40
2012,03,25,08,28,-0.30
2012,03,25,08,30,-0.30
2012,03,25,08,31,-0.30
2012,03,25,08,32,-0.30
2012,03,25,08,33,-0.30
2012,03,25,08,34,-0.30
2012,03,25,08,35,-0.20
2012,03,25,08,36,-0.20
2012,03,25,08,37,-0.20
2012,03,25,08,38,-0.20
2012,03,25,08,39,-0.20
2012,03,25,08,40,-0.20
2012,03,25,08,41,-0.20
2012,03,25,08,42,-0.20
2012,03,25,08,43,-0.20
2012,03,25,08,44,-0.20
2012,03,25,08,45,-0.20
2012,03,25,08,46,-0.20
2012,03,25,08,47,-0.20
2012,03,25,08,48,-0.20
2012,03,25,08,49,-0.20
2012,03,25,08,50,-0.20
2012,03,25,08,51,-0.20
2012,03,25,08,52,-0.20
2012,03,25,08,53,-0.20
2012,03,25,08,54,-0.20
2012,03,25,08,55,-0.20
2012,03,25,08,56,-0.20
2012,03,25,08,57,-0.20
2012,03,25,08,58,-0.10
2012,03,25,08,59,-0.20
2012,03,25,09,00,-0.10
2012,03,25,09,01,-0.20
2012,03,25,09,02,-0.20
2012,03,25,09,03,-0.20
2012,03,25,09,04,-0.20
2012,03,25,09,05,-0.20
2012,03,25,09,06,-0.20
2012,03,25,09,07,-0.20
2012,03,25,09,08,-0.20
2012,03,25,09,09,-0.20
2012,03,25,09,10,-0.30
2012,03,25,09,11,-0.30
2012,03,25,09,12,-0.30
2012,03,25,09,13,-0.30
2012,03,25,09,14,-0.30
2012,03,25,09,15,-0.30
2012,03,25,09,16,-0.40
2012,03,25,09,17,-0.40
2012,03,25,09,18,-0.40
2012,03,25,09,19,-0.40
2012,03,25,09,20,-0.30
2012,03,25,09,21,-0.30
2012,03,25,09,22,-0.30
2012,03,25,09,23,-0.30
2012,03,25,09,24,-0.30
2012,03,25,09,25,-0.30
2012,03,25,09,26,-0.30
2012,03,25,09,27,-0.30
2012,03,25,09,28,-0.30
2012,03,25,09,29,-0.20
2012,03,25,09,30,-0.20
2012,03,25,09,31,-0.20
2012,03,25,09,32,-0.10
2012,03,25,09,33,-0.10
2012,03,25,09,34,-0.10
2012,03,25,09,35,-0.10
2012,03,25,09,36,-0.10
2012,03,25,09,37,-0.10
2012,03,25,09,38,-0.10
2012,03,25,09,39,-0.10
2012,03,25,09,41,-0.10
2012,03,25,09,42,-0.10
2012,03,25,09,43,-0.10
2012,03,25,09,44,-0.10
2012,03,25,09,45,-0.10
2012,03,25,09,46,-0.10
2012,03,25,09,47,-0.10
2012,03,25,09,48,-0.10
2012,03,25,09,49,0.00
2012,03,25,09,50,0.00
2012,03,25,09,51,0.10
2012,03,25,09,52,0.10
2012,03,25,09,53,0.20
2012,03,25,09,54,0.20
2012,03,25,09,55,0.30
2012,03,25,09,56,0.30
2012,03,25,09,57,0.30
2012,03,25,09,58,0.30
2012,03,25,09,59,0.40
2012,03,25,10,00,0.40
2012,03,25,10,01,0.40
2012,03,25,10,02,0.50
2012,03,25,10,03,0.60
2012,03,25,10,04,0.60
2012,03,25,10,05,0.70
2012,03,25,10,06,0.70
2012,03,25,10,07,0.70
2012,03,25,10,08,0.80
2012,03,25,10,09,0.80
2012,03,25,10,10,0.90
2012,03,25,10,11,1.00
2012,03,25,10,12,1.00
2012,03,25,10,13,1.10
2012,03,25,10,14,1.10
2012,03,25,10,15,1.10
2012,03,25,10,16,1.20
2012,03,25,10,17,1.20
2012,03,25,10,18,1.30
2012,03,25,10,19,1.30
2012,03,25,10,20,1.30
2012,03,25,10,21,1.30
2012,03,25,10,22,1.40
2012,03,25,10,23,1.40
2012,03,25,10,24,1.50
2012,03,25,10,25,1.60
2012,03,25,10,26,1.70
2012,03,25,10,27,1.70
2012,03,25,10,28,1.80
2012,03,25,10,29,1.90
2012,03,25,10,30,1.90
2012,03,25,10,31,2.10
2012,03,25,10,32,2.10
2012,03,25,10,33,2.20
2012,03,25,10,34,2.30
2012,03,25,10,35,2.30
2012,03,25,10,36,2.40
2012,03,25,10,37,2.50
2012,03,25,10,39,2.70
2012,03,25,10,40,2.70
2012,03,25,10,41,2.80
2012,03,25,10,42,2.90
2012,03,25,10,43,2.90
2012,03,25,10,44,3.00
2012,03,25,10,45,3.10
2012,03,25,10,46,3.20
2012,03,25,10,47,3.20
2012,03,25,10,48,3.20
2012,03,25,10,49,3.30
2012,03,25,10,50,3.20
2012,03,25,10,51,3.30
2012,03,25,10,52,3.30
2012,03,25,10,53,3.30
2012,03,25,10,54,3.30
2012,03,25,10,55,3.40
2012,03,25,10,56,3.40
2012,03,25,10,57,3.40
2012,03,25,10,59,3.60
2012,03,25,11,00,3.60
2012,03,25,11,01,3.60
2012,03,25,11,02,3.70
2012,03,25,11,03,3.70
2012,03,25,11,04,3.70
2012,03,25,11,05,3.70
2012,03,25,11,06,3.70
2012,03,25,11,07,3.80
2012,03,25,11,08,3.80
2012,03,25,11,09,3.80
2012,03,25,11,10,3.90
2012,03,25,11,11,3.90
2012,03,25,11,12,4.00
2012,03,25,11,13,4.10
2012,03,25,11,14,4.10
2012,03,25,11,15,4.20
2012,03,25,11,16,4.30
2012,03,25,11,17,4.40
2012,03,25,11,18,4.60
2012,03,25,11,19,4.70
2012,03,25,11,20,4.70
2012,03,25,11,21,4.80
2012,03,25,11,22,4.90
2012,03,25,11,23,5.00
2012,03,25,11,24,5.10
2012,03,25,11,25,5.10
2012,03,25,11,26,5.20
2012,03,25,11,27,5.20
2012,03,25,11,28,5.30
2012,03,25,11,29,5.30
2012,03,25,11,30,5.40
2012,03,25,11,31,5.50
2012,03,25,11,32,5.60
2012,03,25,11,33,5.60
2012,03,25,11,34,5.70
2012,03,25,11,35,5.70
2012,03,25,11,36,5.70
2012,03,25,11,37,5.80
2012,03,25,11,38,5.80
2012,03,25,11,39,5.90
2012,03,25,11,40,6.00
2012,03,25,11,42,6.10
2012,03,25,11,43,6.20
2012,03,25,11,44,6.30
2012,03,25,11,45,6.30
2012,03,25,11,46,6.30
2012,03,25,11,47,6.40
2012,03,25,11,48,6.40
2012,03,25,11,49,6.50
2012,03,25,11,50,6.60
2012,03,25,11,51,6.60
2012,03,25,11,52,6.70
2012,03,25,11,53,6.80
2012,03,25,11,54,6.80
2012,03,25,11,55,6.80
2012,03,25,11,56,6.90
2012,03,25,11,57,7.00
2012,03,25,11,58,7.10
2012,03,25,11,59,7.20
2012,03,25,12,00,7.30
2012,03,25,12,01,7.40
2012,03,25,12,02,7.40
2012,03,25,12,03,7.50
2012,03,25,12,04,7.60
2012,03,25,12,05,7.70
2012,03,25,12,06,7.70
2012,03,25,12,07,7.80
2012,03,25,12,08,7.80
2012,03,25,12,09,7.90
2012,03,25,12,10,7.90
2012,03,25,12,11,7.90
2012,03,25,12,12,8.00
2012,03,25,12,13,8.00
2012,03,25,12,14,8.00
2012,03,25,12,15,8.10
2012,03,25,12,16,8.10
2012,03,25,12,17,8.20
2012,03,25,12,18,8.20
2012,03,25,12,19,8.30
2012,03,25,12,20,8.30
2012,03,25,12,21,8.40
2012,03,25,12,22,8.40
2012,03,25,12,23,8.50
2012,03,25,12,24,8.60
2012,03,25,12,25,8.70
2012,03,25,12,26,8.80
2012,03,25,12,27,8.80
2012,03,25,12,28,8.90
2012,03,25,12,29,8.90
2012,03,25,12,30,9.10
2012,03,25,12,31,9.10
2012,03,25,12,32,9.20
2012,03,25,12,33,9.20
2012,03,25,12,34,9.30
2012,03,25,12,35,9.30
2012,03,25,12,36,9.30
2012,03,25,12,37,9.40
2012,03,25,12,38,9.60
2012,03,25,12,39,9.70
2012,03,25,12,40,9.80
2012,03,25,12,41,9.80
2012,03,25,12,42,9.90
2012,03,25,12,43,9.90
2012,03,25,12,45,9.90
2012,03,25,12,46,9.90
2012,03,25,12,47,10.00
2012,03,25,12,48,10.00
2012,03,25,12,49,10.00
2012,03,25,12,50,10.10
2012,03,25,12,51,10.10
2012,03,25,12,52,10.20
2012,03,25,12,53,10.20
2012,03,25,12,54,10.20
2012,03,25,12,55,10.30
2012,03,25,12,56,10.30
2012,03,25,12,57,10.30
2012,03,25,12,58,10.40
2012,03,25,12,59,10.40
2012,03,25,13,00,10.40
2012,03,25,13,01,10.40
2012,03,25,13,02,10.50
2012,03,25,13,03,10.50
2012,03,25,13,04,10.50
2012,03,25,13,05,10.60
2012,03,25,13,06,10.60
2012,03,25,13,07,10.70
2012,03,25,13,08,10.80
2012,03,25,13,09,10.90
2012,03,25,13,10,10.90
2012,03,25,13,11,11.00
2012,03,25,13,12,11.10
2012,03,25,13,13,11.10
2012,03,25,13,14,11.20
2012,03,25,13,15,11.30
2012,03,25,13,16,11.40
2012,03,25,13,17,11.40
2012,03,25,13,18,11.60
2012,03,25,13,19,11.60
2012,03,25,13,20,11.60
2012,03,25,13,22,11.60
2012,03,25,13,23,11.60
2012,03,25,13,24,11.60
2012,03,25,13,25,11.60
2012,03,25,13,26,11.60
2012,03,25,13,27,11.60
2012,03,25,13,28,11.60
2012,03,25,13,29,11.60
2012,03,25,13,30,11.60
2012,03,25,13,31,11.70
2012,03,25,13,32,11.70
2012,03,25,13,33,11.80
2012,03,25,13,34,11.90
2012,03,25,13,35,11.90
2012,03,25,13,36,11.90
2012,03,25,13,37,12.00
2012,03,25,13,38,12.10
2012,03,25,13,39,12.10
2012,03,25,13,40,12.10
2012,03,25,13,41,12.20
2012,03,25,13,42,12.20
2012,03,25,13,43,12.20
2012,03,25,13,44,12.20
2012,03,25,13,45,12.20
2012,03,25,13,46,12.30
2012,03,25,13,47,12.30
2012,03,25,13,48,12.30
2012,03,25,13,49,12.30
2012,03,25,13,50,12.40
2012,03,25,13,51,12.40
2012,03,25,13,52,12.40
2012,03,25,13,53,12.40
2012,03,25,13,54,12.40
2012,03,25,13,55,12.40
2012,03,25,13,56,12.40
2012,03,25,13,57,12.30
2012,03,25,13,58,12.30
2012,03,25,13,59,12.30
2012,03,25,14,00,12.30
2012,03,25,14,01,12.40
2012,03,25,14,02,12.40
2012,03,25,14,03,12.50
2012,03,25,14,04,12.60
2012,03,25,14,05,12.60
2012,03,25,14,06,12.60
2012,03,25,14,07,12.70
2012,03,25,14,08,12.70
2012,03,25,14,09,12.80
2012,03,25,14,10,12.80
2012,03,25,14,11,12.80
2012,03,25,14,12,12.80
2012,03,25,14,13,12.80
2012,03,25,14,14,12.80
2012,03,25,14,15,12.90
2012,03,25,14,16,12.90
2012,03,25,14,17,13.00
2012,03,25,14,18,13.00
2012,03,25,14,19,13.00
2012,03,25,14,20,13.00
2012,03,25,14,21,13.10
2012,03,25,14,22,13.10
2012,03,25,14,23,13.10
2012,03,25,14,24,13.10
2012,03,25,14,25,13.10
2012,03,25,14,26,13.20
2012,03,25,14,27,13.20
2012,03,25,14,28,13.20
2012,03,25,14,30,13.30
2012,03,25,14,31,13.20
2012,03,25,14,32,13.20
2012,03,25,14,33,13.20
2012,03,25,14,34,13.30
2012,03,25,14,35,13.30
2012,03,25,14,36,13.40
2012,03,25,14,37,13.50
2012,03,25,14,38,13.60
2012,03,25,14,39,13.70
2012,03,25,14,40,13.70
2012,03,25,14,41,13.80
2012,03,25,14,42,13.80
2012,03,25,14,43,13.90
2012,03,25,14,44,13.90
2012,03,25,14,45,13.90
2012,03,25,14,46,13.90
2012,03,25,14,47,13.90
2012,03,25,14,48,14.00
2012,03,25,14,50,14.10
2012,03,25,14,51,14.10
2012,03,25,14,52,14.10
2012,03,25,14,53,14.10
2012,03,25,14,54,14.10
2012,03,25,14,55,14.10
2012,03,25,14,56,14.10
2012,03,25,14,57,14.10
2012,03,25,14,59,14.10
2012,03,25,15,00,14.10
2012,03,25,15,01,14.10
2012,03,25,15,02,14.10
2012,03,25,15,03,14.20
2012,03,25,15,05,14.20
2012,03,25,15,06,14.30
2012,03,25,15,07,14.30
2012,03,25,15,08,14.40
2012,03,25,15,09,14.40
2012,03,25,15,10,14.40
2012,03,25,15,11,14.50
2012,03,25,15,12,14.50
2012,03,25,15,13,14.60
2012,03,25,15,14,14.60
2012,03,25,15,15,14.60
2012,03,25,15,16,14.70
2012,03,25,15,17,14.70
2012,03,25,15,18,14.70
2012,03,25,15,19,14.70
2012,03,25,15,20,14.70
2012,03,25,15,21,14.80
2012,03,25,15,22,14.80
2012,03,25,15,23,14.90
2012,03,25,15,24,15.00
2012,03,25,15,25,15.00
2012,03,25,15,26,15.00
2012,03,25,15,27,15.00
2012,03,25,15,28,15.00
2012,03,25,15,29,15.00
2012,03,25,15,30,15.00
2012,03,25,15,31,15.10
2012,03,25,15,32,15.20
2012,03,25,15,34,15.20
2012,03,25,15,35,15.20
2012,03,25,15,36,15.30
2012,03,25,15,37,15.30
2012,03,25,15,38,15.30
2012,03,25,15,39,15.30
2012,03,25,15,40,15.40
2012,03,25,15,41,15.40
2012,03,25,15,42,15.50
2012,03,25,15,43,15.60
2012,03,25,15,44,15.60
2012,03,25,15,45,15.60
2012,03,25,15,46,15.60
2012,03,25,15,47,15.60
2012,03,25,15,48,15.60
2012,03,25,15,49,15.60
2012,03,25,15,50,15.60
2012,03,25,15,51,15.70
2012,03,25,15,52,15.70
2012,03,25,15,53,15.80
2012,03,25,15,54,15.80
2012,03,25,15,55,15.80
2012,03,25,15,56,15.90
2012,03,25,15,57,15.90
2012,03,25,15,58,15.90
2012,03,25,15,59,15.80
2012,03,25,16,00,15.80
2012,03,25,16,01,15.80
2012,03,25,16,02,15.90
2012,03,25,16,03,15.80
2012,03,25,16,04,15.80
2012,03,25,16,05,15.80
2012,03,25,16,06,15.80
2012,03,25,16,07,15.80
2012,03,25,16,08,15.80
2012,03,25,16,09,15.70
2012,03,25,16,10,15.70
2012,03,25,16,11,15.70
2012,03,25,16,12,15.70
2012,03,25,16,13,15.70
2012,03,25,16,15,15.80
2012,03,25,16,16,15.80
2012,03,25,16,17,15.90
2012,03,25,16,18,15.90
2012,03,25,16,19,15.90
2012,03,25,16,20,15.90
2012,03,25,16,21,15.90
2012,03,25,16,22,15.80
2012,03,25,16,23,15.80
2012,03,25,16,24,15.90
2012,03,25,16,25,15.90
2012,03,25,16,26,15.90
2012,03,25,16,27,16.00
2012,03,25,16,28,16.00
2012,03,25,16,29,16.10
2012,03,25,16,30,16.10
2012,03,25,16,31,16.10
2012,03,25,16,32,16.10
2012,03,25,16,33,16.10
2012,03,25,16,34,16.10
2012,03,25,16,35,16.00
2012,03,25,16,36,15.90
2012,03,25,16,37,15.90
2012,03,25,16,38,15.90
2012,03,25,16,39,15.90
2012,03,25,16,40,15.90
2012,03,25,16,41,15.80
2012,03,25,16,42,15.80
2012,03,25,16,43,15.80
2012,03,25,16,44,15.80
2012,03,25,16,45,15.80
2012,03,25,16,46,15.70
2012,03,25,16,47,15.70
2012,03,25,16,48,15.70
2012,03,25,16,50,15.60
2012,03,25,16,51,15.60
2012,03,25,16,52,15.60
2012,03,25,16,53,15.50
2012,03,25,16,54,15.40
2012,03,25,16,55,15.40
2012,03,25,16,56,15.30
2012,03,25,16,57,15.30
2012,03,25,16,58,15.30
2012,03,25,16,59,15.30
2012,03,25,17,00,15.20
2012,03,25,17,01,15.20
2012,03,25,17,02,15.20
2012,03,25,17,03,15.20
2012,03,25,17,04,15.20
2012,03,25,17,05,15.20
2012,03,25,17,06,15.20
2012,03,25,17,07,15.20
2012,03,25,17,08,15.10
2012,03,25,17,09,15.10
2012,03,25,17,10,15.10
2012,03,25,17,11,15.00
2012,03,25,17,12,15.00
2012,03,25,17,13,15.00
2012,03,25,17,14,15.00
2012,03,25,17,15,15.00
2012,03,25,17,17,15.00
2012,03,25,17,18,15.00
2012,03,25,17,19,15.00
2012,03,25,17,20,14.90
2012,03,25,17,21,14.80
2012,03,25,17,22,14.80
2012,03,25,17,23,14.80
2012,03,25,17,24,14.80
2012,03,25,17,26,14.80
2012,03,25,17,27,14.80
2012,03,25,17,28,14.80
2012,03,25,17,29,14.80
2012,03,25,17,30,14.70
2012,03,25,17,31,14.70
2012,03,25,17,32,14.70
2012,03,25,17,33,14.70
2012,03,25,17,34,14.70
2012,03,25,17,35,14.70
2012,03,25,17,36,14.70
2012,03,25,17,37,14.60
2012,03,25,17,38,14.60
2012,03,25,17,39,14.60
2012,03,25,17,40,14.50
2012,03,25,17,41,14.50
2012,03,25,17,42,14.40
2012,03,25,17,43,14.40
2012,03,25,17,44,14.40
2012,03,25,17,45,14.30
2012,03,25,17,46,14.30
2012,03,25,17,47,14.30
2012,03,25,17,48,14.30
2012,03,25,17,50,14.20
2012,03,25,17,51,14.20
2012,03,25,17,52,14.20
2012,03,25,17,53,14.20
2012,03,25,17,54,14.20
2012,03,25,17,55,14.20
2012,03,25,17,56,14.20
2012,03,25,17,57,14.20
2012,03,25,17,58,14.20
2012,03,25,17,59,14.20
2012,03,25,18,00,14.20
2012,03,25,18,01,14.20
2012,03,25,18,02,14.20
2012,03,25,18,04,14.20
2012,03,25,18,05,14.10
2012,03,25,18,06,14.10
2012,03,25,18,07,14.10
2012,03,25,18,08,14.10
2012,03,25,18,09,14.10